Terminal Aerodrome Forecast
Issued by NWS Houston/Galveston, TX

Home | Current Version | Previous Version | Text Only | Print | Product List | Glossary On
Versions: 1 2 3 4 5 6 7 8 9 10 11 12 13 14 15 16 17 18 19 20 21 22 23 24 25 26 27 28 29 30 31 32 33 34 35 36 37 38 39 40 41 42 43 44 45 46 47 48 49 50
000
FTUS44 KHGX 211132
TAFGLS
TAF
KGLS 211132Z 2112/2212 03011KT P6SM OVC025
     FM211700 05008KT P6SM SCT015 SCT070
     FM212000 09007KT P6SM BKN070
     FM220400 VRB06KT P6SM SCT015 OVC025
     FM220900 18009KT P6SM OVC030=

USA.gov is the U.S. government's official web portal to all federal, state and local government web resources and services.